Location: *
(58.7167°N, 26.1833°E)
Time: 00:51:13
(UTC+00:00)

Helios 1B rocket - Pass Details

Date: 25 August 2019
Orbit: 574 x 585 km, 98.1° (Epoch: 19 September)

Event Time Altitude Azimuth Distance (km) Brightness Sun altitude
Rises 22:24:53 0° 15° (NNE) 2,817 7.4 -20.7°
Reaches altitude 10° 22:27:04 10° 12° (NNE) 1,911 6.2 -20.7°
Maximum altitude 22:31:09 62° 292° (WNW) 659 2.7 -20.6°
Enters shadow 22:32:07 46° 237° (WSW) 784 2.8 -20.6°
